| time (UTC) | temp C | wind direction | speed KPH | gust KPH | rain 1hr cm | rain 24hr cm | rain mn cm | humidity % | barometer mb |
| 20260504150620 | 13 | 180 | 0.0 | 0.0 | 0.00 | 0.00 | 0.00 | 60 | 1003.7 |
| 20260504150120 | 13 | 247 | 0.0 | 0.0 | 0.00 | 0.00 | 0.00 | 59 | 1003.7 |
| 20260504141120 | 12 | 247 | 0.0 | 0.0 | 0.00 | 0.00 | 0.00 | 60 | 1004.0 |
| 20260504140620 | 12 | 157 | 0.0 | 3.2 | 0.00 | 0.00 | 0.00 | 61 | 1004.4 |
| 20260504140120 | 12 | 225 | 3.2 | 4.8 | 0.00 | 0.00 | 0.00 | 60 | 1004.4 |
| 20260504130621 | 11 | 202 | 6.4 | 9.7 | 0.00 | 0.00 | 0.00 | 61 | 1004.7 |
| 20260504130121 | 11 | 135 | 0.0 | 0.0 | 0.00 | 0.00 | 0.00 | 62 | 1004.7 |
| 20260504120121 | 8 | 180 | 6.4 | 6.4 | 0.00 | 0.00 | 0.00 | 65 | 1005.4 |
| 20260504110621 | 7 | 202 | 0.0 | 0.0 | 0.00 | 0.00 | 0.00 | 65 | 1005.0 |
| 20260504110121 | 7 | 157 | 0.0 | 0.0 | 0.00 | 0.00 | 0.00 | 65 | 1005.4 |
| 20260504100121 | 7 | 202 | 0.0 | 1.6 | 0.00 | 0.00 | 0.00 | 65 | 1005.0 |
| 20260504090121 | 6 | 202 | 0.0 | 0.0 | 0.00 | 0.00 | 0.00 | 67 | 1004.7 |
| 20260504081621 | 5 | 180 | 0.0 | 0.0 | 0.00 | 0.00 | 0.00 | 69 | 1004.7 |
| 20260504081121 | 5 | 202 | 0.0 | 0.0 | 0.00 | 0.00 | 0.00 | 69 | 1004.4 |
| 20260504080621 | 5 | 157 | 0.0 | 0.0 | 0.00 | 0.00 | 0.00 | 69 | 1004.7 |
| 20260504080121 | 5 | 157 | 0.0 | 0.0 | 0.00 | 0.00 | 0.00 | 69 | 1004.7 |
| 20260504070121 | 5 | 135 | 0.0 | 0.0 | 0.00 | 0.00 | 0.00 | 71 | 1004.7 |
| 20260504060121 | 4 | 135 | 0.0 | 1.6 | 0.00 | 0.00 | 0.00 | 75 | 1004.4 |
| 20260504050622 | 3 | 157 | 0.0 | 0.0 | 0.00 | 0.00 | 0.00 | 74 | 1004.4 |
| 20260504050122 | 3 | 292 | 0.0 | 0.0 | 0.00 | 0.00 | 0.00 | 73 | 1004.4 |
| 20260504045622 | 3 | 292 | 0.0 | 0.0 | 0.00 | 0.00 | 0.00 | 73 | 1004.4 |
| 20260504045122 | 3 | 292 | 0.0 | 0.0 | 0.00 | 0.00 | 0.00 | 73 | 1004.4 |
| 20260504044622 | 4 | 315 | 0.0 | 0.0 | 0.00 | 0.00 | 0.00 | 73 | 1004.4 |
| 20260504044122 | 4 | 315 | 0.0 | 0.0 | 0.00 | 0.00 | 0.00 | 72 | 1004.4 |
| 20260504043622 | 4 | 315 | 0.0 | 0.0 | 0.00 | 0.00 | 0.00 | 72 | 1004.4 |
| 20260504043122 | 4 | 315 | 0.0 | 0.0 | 0.00 | 0.00 | 0.00 | 73 | 1004.4 |
| 20260504042622 | 4 | 315 | 0.0 | 0.0 | 0.00 | 0.00 | 0.00 | 72 | 1004.4 |
| 20260504042122 | 4 | 315 | 0.0 | 0.0 | 0.00 | 0.00 | 0.00 | 71 | 1004.4 |
| 20260504041622 | 5 | 315 | 0.0 | 0.0 | 0.00 | 0.00 | 0.00 | 70 | 1004.4 |
| 20260504041122 | 5 | 315 | 0.0 | 0.0 | 0.00 | 0.00 | 0.00 | 69 | 1004.4 |
| 20260504040622 | 5 | 315 | 0.0 | 0.0 | 0.00 | 0.00 | 0.00 | 69 | 1004.4 |
| 20260504040122 | 5 | 202 | 0.0 | 0.0 | 0.00 | 0.00 | 0.00 | 68 | 1004.4 |
| 20260504035622 | 5 | 202 | 0.0 | 0.0 | 0.00 | 0.00 | 0.00 | 67 | 1004.4 |
| 20260504035122 | 5 | 202 | 0.0 | 0.0 | 0.00 | 0.00 | 0.00 | 67 | 1004.4 |
| 20260504034622 | 5 | 202 | 0.0 | 0.0 | 0.00 | 0.00 | 0.00 | 66 | 1004.4 |
| 20260504034122 | 5 | 202 | 0.0 | 0.0 | 0.00 | 0.00 | 0.00 | 66 | 1004.0 |
| 20260504033622 | 6 | 202 | 0.0 | 0.0 | 0.00 | 0.00 | 0.00 | 64 | 1004.0 |
| 20260504033122 | 6 | 225 | 0.0 | 0.0 | 0.00 | 0.00 | 0.00 | 63 | 1004.0 |
| 20260504032622 | 6 | 157 | 0.0 | 0.0 | 0.00 | 0.00 | 0.00 | 63 | 1004.0 |
| 20260504032122 | 6 | 180 | 0.0 | 0.0 | 0.00 | 0.00 | 0.00 | 63 | 1004.0 |
| 20260504031622 | 6 | 180 | 0.0 | 0.0 | 0.00 | 0.00 | 0.00 | 62 | 1004.0 |
| 20260504031122 | 6 | 225 | 0.0 | 0.0 | 0.00 | 0.00 | 0.00 | 62 | 1004.0 |
| 20260504030622 | 6 | 202 | 0.0 | 0.0 | 0.00 | 0.00 | 0.00 | 62 | 1004.0 |
| 20260504030122 | 6 | 180 | 0.0 | 0.0 | 0.00 | 0.00 | 0.00 | 61 | 1004.0 |
| 20260504025622 | 6 | 157 | 0.0 | 0.0 | 0.00 | 0.00 | 0.00 | 61 | 1004.0 |
| 20260504025122 | 6 | 202 | 0.0 | 0.0 | 0.00 | 0.00 | 0.00 | 61 | 1004.0 |
| 20260504024622 | 6 | 202 | 0.0 | 0.0 | 0.00 | 0.00 | 0.00 | 61 | 1004.0 |
| 20260504024122 | 6 | 180 | 0.0 | 0.0 | 0.00 | 0.00 | 0.00 | 60 | 1004.0 |
| 20260504023622 | 6 | 157 | 0.0 | 0.0 | 0.00 | 0.00 | 0.00 | 60 | 1004.0 |
| 20260504023122 | 6 | 180 | 0.0 | 0.0 | 0.00 | 0.00 | 0.00 | 60 | 1004.0 |
| 20260504022622 | 6 | 180 | 0.0 | 0.0 | 0.00 | 0.00 | 0.00 | 59 | 1004.0 |
| 20260504022122 | 6 | 225 | 0.0 | 0.0 | 0.00 | 0.00 | 0.00 | 59 | 1004.0 |
| 20260504021622 | 6 | 157 | 0.0 | 0.0 | 0.00 | 0.00 | 0.00 | 58 | 1004.0 |
| 20260504021122 | 6 | 157 | 0.0 | 0.0 | 0.00 | 0.00 | 0.00 | 58 | 1004.0 |
| 20260504020622 | 6 | 157 | 0.0 | 0.0 | 0.00 | 0.00 | 0.00 | 58 | 1004.0 |
| 20260504020122 | 7 | 157 | 0.0 | 1.6 | 0.00 | 0.00 | 0.00 | 57 | 1004.0 |
| 20260504015622 | 7 | 157 | 1.6 | 1.6 | 0.00 | 0.00 | 0.00 | 57 | 1004.0 |
| 20260504015122 | 7 | 225 | 0.0 | 0.0 | 0.00 | 0.00 | 0.00 | 57 | 1004.0 |
| 20260504014622 | 7 | 157 | 0.0 | 0.0 | 0.00 | 0.00 | 0.00 | 56 | 1004.0 |
| 20260504014122 | 7 | 180 | 0.0 | 0.0 | 0.00 | 0.00 | 0.00 | 56 | 1003.7 |
| 20260504013622 | 7 | 180 | 0.0 | 0.0 | 0.00 | 0.00 | 0.00 | 56 | 1003.7 |
| 20260504013122 | 7 | 135 | 0.0 | 0.0 | 0.00 | 0.00 | 0.00 | 55 | 1003.7 |
| 20260504012622 | 7 | 135 | 0.0 | 0.0 | 0.00 | 0.00 | 0.00 | 55 | 1003.7 |